| time (UTC) | temp F | wind direction | speed MPH | gust MPH | rain 1hr in | rain 24hr in | rain mn in | humidity % | barometer mb |
| 20260902194245 | 70 | 350 | 5.0 | 8.0 | 0.00 | 0.00 | 0.00 | 79 | 1026.9 |
| 20260902193345 | 71 | 56 | 3.0 | 6.0 | 0.00 | 0.00 | 0.00 | 78 | 1026.4 |
| 20260902192446 | 71 | 94 | 5.0 | 9.0 | 0.00 | 0.00 | 0.00 | 79 | 1025.9 |
| 20260902190645 | 71 | 108 | 6.0 | 11.0 | 0.00 | 0.00 | 0.00 | 76 | 1026.0 |
| 20260902185745 | 71 | 89 | 7.0 | 13.0 | 0.00 | 0.00 | 0.00 | 76 | 1026.2 |
| 20260902184845 | 72 | 106 | 7.0 | 12.0 | 0.00 | 0.00 | 0.00 | 75 | 1026.1 |
| 20260902183945 | 72 | 91 | 7.0 | 13.0 | 0.00 | 0.00 | 0.00 | 74 | 1025.9 |
| 20260902182146 | 72 | 90 | 6.0 | 9.0 | 0.00 | 0.00 | 0.00 | 71 | 1026.2 |
| 20260902181245 | 72 | 93 | 5.0 | 7.0 | 0.00 | 0.00 | 0.00 | 69 | 1026.5 |
| 20260902180345 | 72 | 79 | 5.0 | 10.0 | 0.00 | 0.00 | 0.00 | 67 | 1026.6 |
| 20260902174546 | 72 | 110 | 5.0 | 11.0 | 0.00 | 0.00 | 0.00 | 63 | 1026.8 |
| 20260902172745 | 72 | 111 | 6.0 | 11.0 | 0.00 | 0.00 | 0.00 | 67 | 1026.8 |
| 20260902170045 | 72 | 114 | 5.0 | 12.0 | 0.00 | 0.00 | 0.00 | 74 | 1026.5 |
| 20260902165146 | 72 | 115 | 5.0 | 10.0 | 0.00 | 0.00 | 0.00 | 76 | 1026.4 |
| 20260902164245 | 72 | 98 | 5.0 | 8.0 | 0.00 | 0.00 | 0.00 | 77 | 1026.4 |
| 20260902163345 | 72 | 101 | 4.0 | 8.0 | 0.00 | 0.00 | 0.00 | 77 | 1026.5 |
| 20260902161545 | 72 | 98 | 4.0 | 9.0 | 0.00 | 0.00 | 0.00 | 79 | 1026.7 |
| 20260902160645 | 72 | 85 | 6.0 | 11.0 | 0.00 | 0.00 | 0.00 | 78 | 1026.7 |
| 20260902155745 | 72 | 98 | 4.0 | 6.0 | 0.00 | 0.00 | 0.00 | 80 | 1026.7 |
| 20260902154846 | 72 | 78 | 6.0 | 10.0 | 0.00 | 0.00 | 0.00 | 79 | 1026.9 |
| 20260902153045 | 72 | 74 | 5.0 | 10.0 | 0.00 | 0.00 | 0.00 | 81 | 1026.8 |
| 20260902152146 | 72 | 80 | 5.0 | 10.0 | 0.00 | 0.00 | 0.00 | 80 | 1027.0 |
| 20260902150345 | 71 | 69 | 3.0 | 7.0 | 0.00 | 0.00 | 0.00 | 81 | 1027.1 |
| 20260902145445 | 71 | 69 | 5.0 | 9.0 | 0.00 | 0.00 | 0.00 | 80 | 1027.2 |
| 20260902144545 | 71 | 65 | 5.0 | 10.0 | 0.00 | 0.00 | 0.00 | 81 | 1026.8 |
| 20260902143645 | 70 | 70 | 5.0 | 9.0 | 0.00 | 0.00 | 0.00 | 82 | 1026.7 |
| 20260902142746 | 70 | 76 | 5.0 | 10.0 | 0.00 | 0.00 | 0.00 | 82 | 1026.9 |
| 20260902140046 | 69 | 65 | 4.0 | 8.0 | 0.00 | 0.00 | 0.00 | 83 | 1026.9 |
| 20260902134245 | 68 | 85 | 5.0 | 9.0 | 0.00 | 0.00 | 0.00 | 84 | 1026.6 |
| 20260902133345 | 68 | 66 | 4.0 | 7.0 | 0.00 | 0.00 | 0.00 | 85 | 1026.6 |
| 20260902132446 | 68 | 68 | 4.0 | 9.0 | 0.00 | 0.00 | 0.00 | 85 | 1026.7 |
| 20260902131545 | 67 | 66 | 5.0 | 8.0 | 0.00 | 0.00 | 0.00 | 85 | 1026.7 |
| 20260902125746 | 67 | 67 | 5.0 | 12.0 | 0.00 | 0.00 | 0.00 | 85 | 1026.5 |
| 20260902124846 | 67 | 63 | 4.0 | 10.0 | 0.00 | 0.00 | 0.00 | 85 | 1026.4 |
| 20260902123945 | 67 | 69 | 6.0 | 13.0 | 0.00 | 0.00 | 0.00 | 85 | 1026.3 |
| 20260902123046 | 67 | 64 | 6.0 | 11.0 | 0.00 | 0.00 | 0.00 | 85 | 1026.3 |
| 20260902122145 | 67 | 67 | 5.0 | 11.0 | 0.00 | 0.00 | 0.00 | 86 | 1026.3 |
| 20260902121245 | 67 | 69 | 5.0 | 7.0 | 0.00 | 0.00 | 0.00 | 86 | 1026.4 |
| 20260902120346 | 66 | 70 | 5.0 | 9.0 | 0.00 | 0.00 | 0.00 | 86 | 1026.4 |
| 20260902115445 | 66 | 69 | 5.0 | 9.0 | 0.00 | 0.00 | 0.00 | 86 | 1026.5 |
| 20260902113645 | 66 | 62 | 5.0 | 9.0 | 0.00 | 0.00 | 0.00 | 86 | 1026.5 |
| 20260902111845 | 66 | 61 | 3.0 | 6.0 | 0.00 | 0.00 | 0.00 | 86 | 1026.3 |
| 20260902110947 | 66 | 64 | 4.0 | 7.0 | 0.00 | 0.00 | 0.00 | 86 | 1026.4 |
| 20260902105146 | 65 | 67 | 2.0 | 8.0 | 0.00 | 0.00 | 0.00 | 86 | 1026.3 |
| 20260902104245 | 65 | 70 | 3.0 | 6.0 | 0.00 | 0.00 | 0.00 | 86 | 1026.1 |
| 20260902103345 | 65 | 65 | 4.0 | 7.0 | 0.00 | 0.00 | 0.00 | 86 | 1026.1 |
| 20260902102445 | 65 | 60 | 4.0 | 7.0 | 0.00 | 0.00 | 0.00 | 87 | 1026.0 |
| 20260902095746 | 65 | 69 | 2.0 | 6.0 | 0.00 | 0.00 | 0.00 | 89 | 1025.8 |
| 20260902093945 | 65 | 58 | 3.0 | 6.0 | 0.00 | 0.00 | 0.00 | 89 | 1025.7 |
| 20260902093045 | 65 | 67 | 3.0 | 8.0 | 0.00 | 0.00 | 0.00 | 89 | 1025.5 |
| 20260902092145 | 65 | 64 | 4.0 | 9.0 | 0.00 | 0.00 | 0.00 | 89 | 1025.4 |
| 20260902091246 | 65 | 77 | 5.0 | 8.0 | 0.00 | 0.00 | 0.00 | 90 | 1025.2 |
| 20260902090345 | 65 | 66 | 4.0 | 9.0 | 0.00 | 0.00 | 0.00 | 91 | 1025.2 |
| 20260902085445 | 65 | 68 | 5.0 | 12.0 | 0.00 | 0.00 | 0.00 | 92 | 1025.3 |
| 20260902084545 | 64 | 71 | 5.0 | 9.0 | 0.00 | 0.00 | 0.00 | 92 | 1025.2 |
| 20260902082745 | 64 | 64 | 5.0 | 12.0 | 0.00 | 0.00 | 0.00 | 93 | 1025.3 |
| 20260902081845 | 65 | 63 | 5.0 | 12.0 | 0.00 | 0.00 | 0.00 | 93 | 1025.2 |
| 20260902080945 | 65 | 69 | 5.0 | 11.0 | 0.00 | 0.00 | 0.00 | 93 | 1025.1 |
| 20260902080045 | 65 | 71 | 6.0 | 11.0 | 0.00 | 0.00 | 0.00 | 93 | 1024.9 |
| 20260902075145 | 65 | 72 | 7.0 | 12.0 | 0.00 | 0.00 | 0.00 | 94 | 1024.9 |
| 20260902073345 | 65 | 58 | 6.0 | 11.0 | 0.00 | 0.00 | 0.00 | 94 | 1024.9 |
| 20260902072446 | 65 | 56 | 6.0 | 12.0 | 0.00 | 0.00 | 0.00 | 94 | 1024.8 |
| 20260902071545 | 66 | 56 | 3.0 | 8.0 | 0.00 | 0.00 | 0.00 | 94 | 1024.6 |
| 20260902065745 | 67 | 62 | 4.0 | 7.0 | 0.00 | 0.00 | 0.00 | 93 | 1024.6 |
| 20260902064845 | 67 | 57 | 3.0 | 8.0 | 0.00 | 0.00 | 0.00 | 93 | 1024.6 |
| 20260902063946 | 67 | 42 | 2.0 | 7.0 | 0.00 | 0.00 | 0.00 | 92 | 1024.7 |
| 20260902063045 | 67 | 47 | 3.0 | 6.0 | 0.00 | 0.00 | 0.00 | 92 | 1024.7 |
| 20260902062145 | 66 | 56 | 3.0 | 8.0 | 0.00 | 0.00 | 0.00 | 92 | 1024.7 |
| 20260902060345 | 66 | 63 | 3.0 | 6.0 | 0.00 | 0.00 | 0.00 | 92 | 1024.6 |
| 20260902055446 | 66 | 74 | 3.0 | 6.0 | 0.00 | 0.00 | 0.00 | 92 | 1024.6 |
| 20260902054546 | 66 | 71 | 3.0 | 8.0 | 0.00 | 0.00 | 0.00 | 92 | 1024.9 |
| 20260902052745 | 66 | 63 | 5.0 | 10.0 | 0.00 | 0.00 | 0.00 | 92 | 1024.5 |
| 20260902051845 | 66 | 59 | 4.0 | 11.0 | 0.00 | 0.00 | 0.00 | 92 | 1024.7 |
| 20260902050045 | 66 | 63 | 4.0 | 8.0 | 0.00 | 0.00 | 0.00 | 92 | 1024.7 |
| 20260902045145 | 66 | 80 | 3.0 | 6.0 | 0.00 | 0.00 | 0.00 | 92 | 1024.6 |
| 20260902044246 | 65 | 67 | 5.0 | 7.0 | 0.00 | 0.00 | 0.00 | 92 | 1024.8 |
| 20260902043345 | 65 | 60 | 4.0 | 8.0 | 0.00 | 0.00 | 0.00 | 92 | 1024.8 |
| 20260902042445 | 65 | 63 | 5.0 | 8.0 | 0.00 | 0.00 | 0.00 | 92 | 1024.5 |
| 20260902041545 | 65 | 72 | 5.0 | 12.0 | 0.00 | 0.00 | 0.00 | 93 | 1024.0 |
| 20260902040645 | 65 | 80 | 5.0 | 10.0 | 0.00 | 0.00 | 0.00 | 93 | 1024.0 |
| 20260902035745 | 65 | 73 | 5.0 | 11.0 | 0.00 | 0.00 | 0.00 | 93 | 1024.1 |
| 20260902033945 | 65 | 72 | 6.0 | 11.0 | 0.00 | 0.00 | 0.00 | 93 | 1024.0 |
| 20260902033045 | 65 | 79 | 5.0 | 8.0 | 0.00 | 0.00 | 0.00 | 92 | 1024.1 |
| 20260902032145 | 65 | 76 | 5.0 | 8.0 | 0.00 | 0.00 | 0.00 | 92 | 1024.3 |
| 20260902031246 | 65 | 59 | 4.0 | 10.0 | 0.00 | 0.00 | 0.00 | 92 | 1024.2 |
| 20260902030345 | 65 | 67 | 5.0 | 11.0 | 0.00 | 0.00 | 0.00 | 92 | 1024.0 |
| 20260902025445 | 65 | 71 | 4.0 | 8.0 | 0.00 | 0.00 | 0.00 | 92 | 1023.9 |
| 20260902024545 | 65 | 73 | 5.0 | 12.0 | 0.00 | 0.00 | 0.00 | 92 | 1023.7 |
| 20260902022746 | 65 | 71 | 6.0 | 11.0 | 0.00 | 0.00 | 0.00 | 91 | 1023.5 |
| 20260902021845 | 65 | 62 | 5.0 | 9.0 | 0.00 | 0.00 | 0.00 | 91 | 1023.5 |
| 20260902020945 | 66 | 63 | 5.0 | 11.0 | 0.00 | 0.00 | 0.00 | 91 | 1023.4 |
| 20260902020045 | 66 | 67 | 5.0 | 10.0 | 0.00 | 0.00 | 0.00 | 91 | 1023.1 |
| 20260902015145 | 66 | 70 | 5.0 | 13.0 | 0.00 | 0.00 | 0.00 | 91 | 1023.1 |
| 20260902014245 | 66 | 67 | 7.0 | 12.0 | 0.00 | 0.00 | 0.00 | 92 | 1023.0 |
| 20260902013345 | 66 | 64 | 5.0 | 13.0 | 0.00 | 0.00 | 0.00 | 92 | 1022.8 |
| 20260902012445 | 66 | 63 | 6.0 | 13.0 | 0.00 | 0.00 | 0.00 | 92 | 1022.5 |
| 20260902011545 | 67 | 71 | 5.0 | 12.0 | 0.00 | 0.00 | 0.00 | 92 | 1022.4 |
| 20260902010646 | 67 | 68 | 5.0 | 11.0 | 0.00 | 0.00 | 0.00 | 92 | 1022.2 |
| 20260902003945 | 67 | 67 | 7.0 | 13.0 | 0.00 | 0.00 | 0.00 | 91 | 1022.0 |
| 20260902003045 | 68 | 70 | 9.0 | 18.0 | 0.00 | 0.00 | 0.00 | 91 | 1022.0 |
| 20260902001245 | 69 | 67 | 7.0 | 14.0 | 0.00 | 0.00 | 0.00 | 92 | 1022.0 |
| 20260902000346 | 69 | 73 | 6.0 | 11.0 | 0.00 | 0.00 | 0.00 | 93 | 1021.9 |
| 20260901235445 | 69 | 62 | 8.0 | 14.0 | 0.00 | 0.00 | 0.00 | 93 | 1021.6 |
| 20260901234545 | 70 | 63 | 7.0 | 13.0 | 0.00 | 0.00 | 0.00 | 93 | 1021.6 |
| 20260901233645 | 70 | 71 | 6.0 | 14.0 | 0.00 | 0.00 | 0.00 | 93 | 1021.5 |
| 20260901232745 | 70 | 63 | 7.0 | 14.0 | 0.00 | 0.00 | 0.00 | 93 | 1021.4 |
| 20260901231845 | 71 | 68 | 7.0 | 13.0 | 0.00 | 0.00 | 0.00 | 93 | 1021.3 |
| 20260901230945 | 71 | 60 | 6.0 | 12.0 | 0.00 | 0.00 | 0.00 | 93 | 1021.4 |
| 20260901224245 | 72 | 65 | 5.0 | 9.0 | 0.00 | 0.00 | 0.00 | 94 | 1020.9 |
| 20260901223345 | 72 | 66 | 4.0 | 8.0 | 0.00 | 0.00 | 0.00 | 94 | 1021.0 |
| 20260901222445 | 72 | 72 | 4.0 | 9.0 | 0.00 | 0.00 | 0.00 | 93 | 1021.0 |
| 20260901221545 | 72 | 68 | 4.0 | 10.0 | 0.00 | 0.00 | 0.00 | 93 | 1020.9 |
| 20260901215745 | 72 | 66 | 7.0 | 12.0 | 0.00 | 0.00 | 0.00 | 93 | 1020.9 |
| 20260901214845 | 72 | 65 | 6.0 | 11.0 | 0.00 | 0.00 | 0.00 | 93 | 1020.9 |
| 20260901213945 | 73 | 64 | 7.0 | 11.0 | 0.00 | 0.00 | 0.00 | 93 | 1020.9 |
| 20260901213045 | 73 | 68 | 4.0 | 8.0 | 0.00 | 0.00 | 0.00 | 93 | 1020.9 |
| 20260901212146 | 73 | 55 | 5.0 | 9.0 | 0.00 | 0.00 | 0.00 | 93 | 1021.0 |
| 20260901211246 | 73 | 53 | 5.0 | 9.0 | 0.00 | 0.00 | 0.00 | 92 | 1021.1 |
| 20260901210345 | 74 | 55 | 6.0 | 11.0 | 0.00 | 0.00 | 0.00 | 92 | 1021.0 |
| 20260901205445 | 75 | 47 | 4.0 | 10.0 | 0.00 | 0.00 | 0.00 | 92 | 1020.8 |
| 20260901204545 | 75 | 42 | 3.0 | 7.0 | 0.00 | 0.00 | 0.00 | 91 | 1020.8 |
| 20260901203645 | 76 | 19 | 4.0 | 10.0 | 0.00 | 0.00 | 0.00 | 91 | 1020.7 |
| 20260901202745 | 76 | 29 | 4.0 | 10.0 | 0.00 | 0.00 | 0.00 | 89 | 1020.6 |
| 20260901200945 | 78 | 143 | 1.0 | 2.0 | 0.00 | 0.00 | 0.00 | 87 | 1020.5 |
| 20260901200045 | 77 | 155 | 0.0 | 2.0 | 0.00 | 0.00 | 0.00 | 88 | 1020.5 |
| 20260901195145 | 77 | 124 | 1.0 | 4.0 | 0.00 | 0.00 | 0.00 | 88 | 1020.6 |